Location: Bavegemberg
(50.9500°N, 3.8833°E)
Time: 15:00:05
(UTC+00:00)

Cosmos 2322 Rocket - Pass Details

Date: 23 May 2024
Orbit: 832 x 850 km, 71.0° (Epoch: 16 June)

Event Time Altitude Azimuth Distance (km) Brightness Sun altitude
Rises 02:34:22 0° 325° (NW) 3,402 5.6 -8.9°
Reaches altitude 10° 02:36:57 10° 318° (NW) 2,466 4.7 -8.7°
Maximum altitude 02:42:06 38° 252° (WSW) 1,275 2.7 -8.1°
Drops below altitude 10° 02:47:16 10° 186° (S) 2,461 4.1 -7.6°
Sets 02:49:51 0° 179° (S) 3,395 4.9 -7.3°
